Chubbuck, ID

2:31 PM MST on February 12, 2016 (GMT -0700)
Pocatello Regional

Weather History for KPIH - March, 2013

Change the Weather History Date:

Thursday, March 28, 2013

  Actual Average Record
Temperature  
Mean Temperature 46 °F 41 °F  
Max Temperature 64 °F 53 °F 75 °F (1986)
Min Temperature 27 °F 30 °F 6 °F (1975)
Degree Days  
Heating Degree Days 19 24  
Month to date heating degree days 743 769  
Since 1 July heating degree days 5854 6042  
Cooling Degree Days 0 0  
Month to date cooling degree days 0 0  
Year to date cooling degree days 0 0  
Moisture  
Dew Point 31 °F    
Average Humidity 60    
Maximum Humidity 92    
Minimum Humidity 27    
Precipitation  
Precipitation 0.00 in 0.03 in 0.43 in (1982)
Month to date precipitation 0.72 1.14  
Year to date precipitation 1.80 3.10  
Snow  
Snow 0.00 in - - ()
Month to date snowfall 1.1  
Since 1 July snowfall 34.7  
Snow Depth 0.00 in    
Sea Level Pressure  
Sea Level Pressure 30.03 in    
Wind  
Wind Speed 5 mph (NNW)    
Max Wind Speed 20 mph    
Max Gust Speed 24 mph    
Visibility 10 miles    
Events      
T = Trace of Precipitation, MM = Missing Value Source: NWS Daily Summary

Daily Weather History Graph

Daily Weather History Graph

Search for Another Location

Airport or City:

Trip Planner

Search our weather history database for the weather conditions in past years. The results will help you decide how hot, cold, wet, or windy it might be!

Date:

Astronomy

Mar. 28, 2013 Rise Set
Actual Time 7:18 AM MDT 7:52 PM MDT
Civil Twilight 6:50 AM MDT 8:20 PM MDT
Nautical Twilight 6:16 AM MDT 8:54 PM MDT
Astronomical Twilight 5:42 AM MDT 9:29 PM MDT
Moon 9:52 PM MDT (3/28) 7:46 AM MDT (3/28)
Length of Visible Light 13h 30m
Length of Day
12h 33m
Full, 98% of the Moon is Illuminated
Mar 28
Full
Apr 2
Last Quarter
Apr 10
New
Apr 18
First Quarter
Apr 25
Full

Hourly Weather History & Observations

Time (MDT) Temp. Windchill Dew Point Humidity Pressure Visibility Wind Dir Wind Speed Gust Speed Precip Events Conditions
12:53 AM 39.0 °F 36.8 °F 30.9 °F 73% 29.99 in 10.0 mi East 3.5 mph - N/A   Clear
1:53 AM 34.0 °F - 30.0 °F 85% 30.01 in 10.0 mi Calm Calm - N/A   Clear
2:53 AM 30.9 °F - 28.0 °F 89% 30.01 in 10.0 mi Calm Calm - N/A   Clear
3:53 AM 30.9 °F 27.5 °F 28.0 °F 89% 30.02 in 10.0 mi NE 3.5 mph - N/A   Clear
4:53 AM 28.9 °F - 26.1 °F 89% 30.03 in 10.0 mi Calm Calm - N/A   Clear
5:53 AM 30.9 °F - 28.0 °F 89% 30.04 in 10.0 mi Calm Calm - N/A   Clear
6:53 AM 27.0 °F - 25.0 °F 92% 30.05 in 10.0 mi Calm Calm - N/A   Partly Cloudy
7:53 AM 32.0 °F 28.7 °F 28.9 °F 88% 30.07 in 10.0 mi Variable 3.5 mph - N/A   Clear
8:53 AM 36.0 °F - 30.9 °F 82% 30.09 in 10.0 mi Calm Calm - N/A   Clear
9:53 AM 39.9 °F - 33.1 °F 77% 30.09 in 10.0 mi Calm Calm - N/A   Clear
10:53 AM 48.0 °F - 33.1 °F 56% 30.07 in 10.0 mi Calm Calm - N/A   Clear
11:53 AM 54.0 °F - 33.1 °F 45% 30.06 in 10.0 mi North 5.8 mph - N/A   Clear
12:53 PM 59.0 °F - 32.0 °F 36% 30.04 in 10.0 mi Variable 3.5 mph - N/A   Partly Cloudy
1:53 PM 62.1 °F - 28.9 °F 29% 30.03 in 10.0 mi Calm Calm - N/A   Partly Cloudy
2:53 PM 63.0 °F - 30.0 °F 29% 30.01 in 10.0 mi NW 4.6 mph - N/A   Partly Cloudy
3:53 PM 64.0 °F - 30.9 °F 29% 29.99 in 10.0 mi NW 11.5 mph - N/A   Clear
4:53 PM 63.0 °F - 28.9 °F 28% 29.99 in 10.0 mi NW 9.2 mph - N/A   Scattered Clouds
5:53 PM 62.1 °F - 28.0 °F 28% 30.00 in 10.0 mi NW 5.8 mph - N/A   Scattered Clouds
6:53 PM 57.9 °F - 32.0 °F 37% 30.02 in 10.0 mi South 16.1 mph - N/A   Mostly Cloudy
7:53 PM 55.0 °F - 30.9 °F 40% 30.02 in 10.0 mi East 5.8 mph - N/A   Scattered Clouds
8:53 PM 50.0 °F - 33.1 °F 52% 30.05 in 10.0 mi South 11.5 mph - N/A   Clear
9:53 PM 50.0 °F - 34.0 °F 54% 30.06 in 10.0 mi SSW 11.5 mph - N/A   Mostly Cloudy
10:53 PM 45.0 °F 41.2 °F 34.0 °F 65% 30.05 in 10.0 mi SW 6.9 mph - N/A   Partly Cloudy
11:53 PM 43.0 °F 40.3 °F 34.0 °F 71% 30.04 in 10.0 mi NNE 4.6 mph - N/A   Scattered Clouds